Regional Weather Roundup
Issued by NWS Northern Indiana

Home | Current Version | Previous Version | Text Only | Print | Product List | Glossary Off
Versions: 1 2 3 4 5 6 7 8 9 10 11 12 13 14 15 16 17 18 19 20 21 22 23 24 25 26 27 28 29 30 31 32 33 34 35 36 37 38 39 40 41 42 43 44 45 46 47 48 49 50

000
ASUS43 KIWX 271510
RWRIWX

KIWX WEATHER ROUNDUP
NATIONAL WEATHER SERVICE NORTHERN INDIANA
1100 AM EDT SAT AUG 27 2016

NOTE: "FAIR" INDICATES FEW OR NO CLOUDS BELOW 12,000 FEET WITH NO
SIGNIFICANT WEATHER AND/OR OBSTRUCTIONS TO VISIBILITY.

* THESE STATIONS ARE NOT UNDER NWS QUALITY CONTROL. THEY ALSO MAY NOT
  REPORT WEATHER SUCH AS PRECIPITATION OR FOG.

INZ001>027-271600-
NORTHERN INDIANA

CITY           SKY/WX    TMP DP  RH WIND       PRES   REMARKS
GARY*          PTSUNNY   75  75 100 E9        30.07F
VALPARAISO     CLOUDY    72  70  93 SE9       30.10S
MICHIGAN CITY* CLOUDY    70  70 100 MISG      30.10S
LAPORTE*       CLOUDY   N/A N/A N/A SE6       30.13R
KNOX*          CLOUDY    70  61  73 CALM      30.12R VSB 3/4
SOUTH BEND     LGT RAIN  70  69  97 CALM      30.13R
ELKHART*       CLOUDY    70  68  94 W3        30.15S
GOSHEN         TSTM      70  67  90 NE3       30.12F VSB 3/4
MONTICELLO*    CLOUDY    74  69  85 CALM      30.11S
LOGANSPORT*    LGT RAIN  70  70 100 SE5       30.14S
ROCHESTER*     RAIN      73  73 100 CALM      30.13F
WARSAW*        HVY RAIN  72  72 100 SW10      30.17R
ANGOLA*        CLOUDY    75  70  83 W6        30.13R
FORT WAYNE     PTSUNNY   81  72  74 SW10      30.13R
HUNTINGTON*    CLOUDY    79  73  82 SW6       30.12R
PERU/GRISSOM   RAIN      71  71 100 NW6       30.14R VSB 1
MARION*        CLOUDY    79  72  80 W10G21    30.15R HAZE

$$
INZ028>050-271600-
CENTRAL INDIANA

CITY           SKY/WX    TMP DP  RH WIND       PRES   REMARKS
LAFAYETTE      CLOUDY    75  73  93 SE5       30.11R
KOKOMO*        CLOUDY    73  70  88 NW7       30.14R
MUNCIE*        MOSUNNY   82  74  76 S5        30.13S
INDIANAPOLIS   CLOUDY    75  71  87 N7        30.14R

$$
MIZ043>046-050>051-056>058-064>065-071>073-077>080-271600-
SOUTHWEST LOWER MICHIGAN

CITY           SKY/WX    TMP DP  RH WIND       PRES   REMARKS
BATTLE CREEK   HVY RAIN  65  65 100 W9        30.17R FOG
BENTON HARBOR  LGT RAIN  71  68  90 E8        30.08F
COLDWATER*     RAIN      72  65  77 W10       30.14R
HILLSDALE*     PTSUNNY   77  64  64 SE7       30.13F
HOLLAND        LGT RAIN  68  66  93 SE8       30.11F
GRAND RAPIDS   LGT RAIN  65  62  90 SE10      30.14F
KALAMAZOO      TSTM      67  65  93 NE5       30.14S
STURGIS*       LGT RAIN  68  66  93 CALM      30.12F
THREE RIVERS*  RAIN      68  66  94 E8        30.12F

$$
OHZ001>008-015>018-024>025-271600-
NORTHWEST OHIO

CITY           SKY/WX    TMP DP  RH WIND       PRES   REMARKS
WAUSEON*       FAIR      79  66  65 SE10      30.13F
DEFIANCE       MOSUNNY   81  67  62 SE6       30.12F
FINDLAY        MOSUNNY   84  69  60 SE10      30.13F
TOLEDO EXPRESS PTSUNNY   78  67  68 VRB3      30.13F
TOLEDO METCALF MOSUNNY   80  67  64 SE6       30.14F
LIMA           MOSUNNY   82  73  74 SE9       30.14F

$$
AND FOR LAKE MICHIGAN COASTAL AND OPEN LAKE BUOY OBSERVATIONS

STATION/POSITION TEMP    WIND        PRES    VSBY  WAVE
                 AIR SEA DIR/SP/G                  HT/PER
                 (F)     (DEG/KT/KT) (MB)    (MI)  (FT/S)
CALUMET HARBOR    71     120/  5/  8 1018.0R
MICHIGAN CITY     69      60/  9/ 10   N/A
BURNS HARBOR      71     110/  7/ 13 1019.3F
SAINT JOSEPH      71     190/  3/  6 1019.6F
SOUTH LAKE BUOY   71 74  140/ 16/ 17 1017.8R         2/ 4
4 MI NW BRIDGMAN  70 75  110/ 12/ 14 1018.6F         1
MICHIGAN CITY     72 75  130/ 10/ 12   N/A           1/ 4

$$
&&




USA.gov is the U.S. government's official web portal to all federal, state and local government web resources and services.